This is the latest recevied weather packets stored in our database for station/object G4KVI. If no packets are shown the sender has not sent any weather packets the latest 10 day(s).
| Time | Temp. | Humidity | Pressure | Rain* | Wind** | Luminosity | Snow |
|---|---|---|---|---|---|---|---|
| 1777830906 | 16.11° C | 71% | 1011.3 hPa | 0 mm | - | 77 W/m² | - |
| 1777830606 | 16.67° C | 70% | 1011.3 hPa | 0 mm | - | 73 W/m² | - |
| 1777830306 | 16.67° C | 71% | 1011.2 hPa | 0 mm | - | 140 W/m² | - |
| 1777830006 | 16.11° C | 71% | 1011.3 hPa | 0 mm | - | 143 W/m² | - |
| 1777829706 | 16.11° C | 71% | 1010.8 hPa | 0 mm | - | 110 W/m² | - |
| 1777829406 | 16.11° C | 71% | 1011.1 hPa | 0 mm | - | 119 W/m² | - |
| 1777829106 | 16.67° C | 72% | 1011 hPa | 0 mm | - | 133 W/m² | - |
| 1777828806 | 16.67° C | 72% | 1011.1 hPa | 0 mm | - | 146 W/m² | - |
| 1777828506 | 16.67° C | 72% | 1011 hPa | 0 mm | - | 152 W/m² | - |
| 1777828206 | 16.67° C | 72% | 1011.1 hPa | 0 mm | - | 150 W/m² | - |
| 1777827906 | 16.67° C | 72% | 1011.2 hPa | 0 mm | - | 139 W/m² | - |
| 1777827606 | 16.67° C | 71% | 1011.1 hPa | 0 mm | - | 94 W/m² | - |
| 1777827306 | 16.67° C | 70% | 1011.1 hPa | 0 mm | - | 118 W/m² | - |
| 1777827006 | 16.67° C | 70% | 1011.1 hPa | 0 mm | - | 161 W/m² | - |
| 1777826706 | 16.67° C | 69% | 1011 hPa | 0 mm | - | 160 W/m² | - |
| 1777826406 | 16.67° C | 68% | 1011 hPa | 0 mm | - | 158 W/m² | - |
| 1777826106 | 17.22° C | 67% | 1011.2 hPa | 0 mm | - | 135 W/m² | - |
| 1777825806 | 17.22° C | 66% | 1010.9 hPa | 0 mm | - | 131 W/m² | - |
| 1777825506 | 17.78° C | 64% | 1011 hPa | 0 mm | - | 165 W/m² | - |
| 1777825206 | 18.33° C | 64% | 1011.1 hPa | 0 mm | - | 163 W/m² | - |
| 1777824906 | 17.78° C | 61% | 1010.9 hPa | 0 mm | - | 197 W/m² | - |
| 1777824606 | 17.78° C | 62% | 1010.9 hPa | 0 mm | - | 323 W/m² | - |
| 1777824306 | 17.78° C | 61% | 1011.1 hPa | 0 mm | - | 183 W/m² | - |
| 1777824006 | 17.78° C | 62% | 1011.3 hPa | 0 mm | - | 206 W/m² | - |
| 1777823706 | 18.33° C | 63% | 1011.1 hPa | 0 mm | - | 254 W/m² | - |
* Rain latest hour (hover to see other rain measurements)
** Current wind speed in m/s (hover to see current wind gust speed)